Location: Bletchingley
(51.2333°N, 0.1000°W)
Time: 22:47:11
(UTC+00:00)

NOSS 2-2 (C) - Pass Details

Date: 18 September 2020
Orbit: 468 x 1740 km, 63.3° (Epoch: 19 October)

Event Time Altitude Azimuth Distance (km) Brightness Sun altitude
Rises 20:04:40 0° 225° (SW) 2,499 6.9 -18.5°
Reaches altitude 10° 20:06:41 10° 226° (SW) 1,638 6.0 -18.8°
Maximum altitude 20:10:12 83° 315° (NW) 516 3.1 -19.3°
Drops below altitude 10° 20:14:20 10° 44° (NE) 1,909 5.9 -19.9°
Enters shadow 20:15:46 - 45° (NE) 2,517 6.5 -20.0°
